Regional Weather Roundup
Issued by NWS

Home | Current Version | Previous Version | Text Only | Print | Product List | Glossary On
Versions: 1 2 3 4 5 6 7 8 9 10 11 12 13 14 15 16 17 18 19 20 21 22 23 24 25 26 27 28 29 30 31 32 33 34 35 36 37 38 39 40 41 42 43 44 45 46 47 48 49 50
000
ASUS44 KFWD 270715
RWRTX
NORTH TEXAS HOURLY WEATHER ROUNDUP
NATIONAL WEATHER SERVICE FORT WORTH TX
200 AM CDT TUE SEP 27 2016

NOTE: "FAIR" INDICATES FEW OR NO CLOUDS BELOW 12,000 FEET WITH NO
SIGNIFICANT WEATHER AND/OR OBSTRUCTIONS TO VISIBILITY.

TXZ118-119-270800-
DALLAS/FORT WORTH METROPLEX

CITY           SKY/WX    TMP DP  RH WIND       PRES   REMARKS
DFW AIRPORT    CLOUDY    68  60  75 N6        30.12S
DALLAS LOVE    CLOUDY    68  60  75 N5        30.12S
FTW MEACHAM    CLOUDY    68  61  78 NW5       30.13F
DAL-EXECUTIVE  CLOUDY    66  62  87 NW7       30.12S
FTW-ALLIANCE   CLOUDY    66  61  84 NW5       30.14S
FTW-NAS-JRB    CLOUDY    69  60  73 N7        30.14F
FTW-SPINKS     CLOUDY    67  60  80 N3        30.15S
ARLINGTON      CLOUDY    68  61  78 NW6       30.12F
GRAND PRAIRIE  CLOUDY    68  58  68 N5        30.14F
ADDISON        CLOUDY    67  62  83 N3        30.14F
MESQUITE       CLOUDY    66  63  90 NW6       30.12S
LANCASTER      CLOUDY    68  60  77 NW7       30.13S
$$

TXZ091>094-102>105-117-120-121-131>134-270800-
NORTH CENTRAL TEXAS

CITY           SKY/WX    TMP DP  RH WIND       PRES   REMARKS
SHRMAN/DENISON MOCLDY    62  53  72 CALM      30.15F
GAINESVILLE      N/A     58  49  71 N6        30.17F
BOWIE          MOCLDY    60  52  76 N3        30.16F
BRIDGEPORT     CLOUDY    60  60  99 CALM      30.18R
DECATUR        CLOUDY    61  50  66 CALM      30.16R
DENTON         CLOUDY    64  58  80 N7        30.14S
MCKINNEY       CLOUDY    64  60  87 N6        30.12F
GREENVILLE     CLOUDY    64  61  88 N3        30.12F
ROCKWALL       CLOUDY    66  61  86 NW6       30.11F
TERRELL        CLOUDY    66  60  81 N7        30.11F
WAXAHACHIE     CLOUDY    65  63  91 NW7       30.13F
CLEBURNE       CLOUDY    66  63  88 NW5       30.15S
GRANBURY       CLOUDY    66  63  87 CALM      30.15S
$$

TXZ083>090-098>101-113>116-127>130-139>142-154-155-270800-
WESTERN NORTH TEXAS

CITY           SKY/WX    TMP DP  RH WIND       PRES   REMARKS
WICHITA FALLS  PTCLDY    56  49  77 NW8       30.17F
WF-KICKAPOO    PTCLDY    59  49  69 CALM      30.19S
VERNON         CLEAR     57  44  61 N6        30.21S
ABILENE        CLOUDY    60  53  77 CALM      30.21F
ABILENE-DYESS  CLOUDY    60  51  73 NW5       30.20F
CISCO          CLOUDY    61  54  77 NW5       30.20F
BRECKENRIDGE     N/A     62  52  68 N3        30.18F
GRAHAM         CLOUDY    60  55  81 CALM      30.17R
MINERAL WELLS  CLOUDY    62  54  74 N5        30.15S
STEPHENVILLE   CLOUDY    65  60  85 CALM      30.19S
COMANCHE       DRIZZLE   64  59  85 NW5       30.17F
BROWNWOOD      CLOUDY    64  54  68 N3        30.17F
COLEMAN        CLOUDY    63  50  61 N6        30.19S
$$

TXZ143>147-156>162-174-175-270800-
CENTRAL TEXAS

CITY           SKY/WX    TMP DP  RH WIND       PRES   REMARKS
WACO           CLOUDY    67  61  81 N10       30.11F
WACO-MCGREGOR  CLOUDY    66  62  87 N8        30.12F
HILLSBORO      CLOUDY    65  61  87 NW5       30.13S
CORSICANA      MOCLDY    66  63  90 N7        30.10F
MEXIA          CLOUDY    67  62  84 N3        30.09S
HEARNE         CLOUDY    66  63  90 NW7       30.09S
CAMERON        CLOUDY    67  64  90 N6        30.10R
TEMPLE         CLOUDY    66  62  87 N9        30.12S
KILLEEN        CLOUDY    65  62  89 N10       30.11S
KILLEEN-SKYLRK CLOUDY    66  62  87 N8        30.12S
FORT HOOD      CLOUDY    64  61  88 N8        30.09S
GATESVILLE     CLOUDY    66  61  82 CALM      30.15S
HAMILTON       CLOUDY    65  62  90 NW6       30.16S
LAMPASAS       CLOUDY    64  60  85 N3        30.14R
$$

TXZ095>097-106>112-122>126-135>138-148>153-164>167-270800-
EAST TEXAS

CITY           SKY/WX    TMP DP  RH WIND       PRES   REMARKS
PARIS          CLOUDY    64  61  88 NW5       30.12S
SULPHUR SPRNGS CLOUDY    67  60  79 N5        30.13S
MOUNT PLEASANT CLOUDY    67  56  69 N3        30.11F
GILMER         CLOUDY    67  57  69 CALM      30.09F
MINEOLA        CLOUDY    66  63  88 CALM      30.10S
TYLER          CLOUDY    68  59  73 N5        30.09F
LONGVIEW       CLOUDY    67  58  72 NE5       30.07F
MARSHALL       MOCLDY    65  59  80 CALM      30.09F
ATHENS         MOCLDY    64  59  82 N3        30.08S
PALESTINE      CLOUDY    67  63  87 N6        30.09S
JACKSONVILLE   PTCLDY    66  60  80 NE7       30.10S
HENDERSON      CLOUDY    67  58  73 N3        30.09S
CENTER         SUNNY     68  62  81 N3        30.09R
NACOGDOCHES    PTCLDY    66  61  82 CALM      30.06S
LUFKIN         MOCLDY    68  64  87 N7        30.05F
$$

SUPPLEMENTAL OBSERVATIONS (CENTRAL)

CITY           SKY/WX    TMP DP  RH WIND       PRES   REMARKS
DENISON DAM      N/A     64  46  52 N2          N/A
CADDO GRASSLND   N/A     61  57  88 CALM        N/A
PAT MAYSE LAKE   N/A     61  59  94 N1          N/A
GREENVILLE       N/A     64  61  88 N5          N/A
CEDAR HILL       N/A     66  59  77 NE2         N/A
ATHENS           N/A     64  59  82 CALM        N/A
MCGREGOR         N/A     66  63  88 N7          N/A
TEMPLE           N/A     66  61  82 N1          N/A
$$

SUPPLEMENTAL OBSERVATIONS (WEST)

CITY           SKY/WX    TMP DP  RH WIND       PRES   REMARKS
MILLERS CREEK    N/A     59  55  88 W2          N/A
POSSUM KINGDOM   N/A     63  54  72 NW5         N/A
LBJ GRASSLAND    N/A     63  50  63 N2          N/A
GRANBURY         N/A     66  63  88 W2          N/A
HAMBY            N/A     59  54  82 NW1         N/A
IVIE RESERVOIR   N/A     64  50  59 N8          N/A
COLORADO BEND    N/A     64  59  82 NE2         N/A
$$

SUPPLEMENTAL OBSERVATIONS (EAST)

CITY           SKY/WX    TMP DP  RH WIND       PRES   REMARKS
CLARKSVILLE      N/A     64  59  82 NW2         N/A
TEXARKANA        N/A     66  57  72 NE2         N/A
LINDEN           N/A     66  57  72 CALM        N/A
CADDO LAKE       N/A     64  57  77 NW1         N/A
GILMER           N/A     68  57  68 NE2         N/A
HENDERSON        N/A     66  57  72 NE3         N/A
LUFKIN           N/A     68  64  88 MISG        N/A
N SABINE NF      N/A     64  63  94 MISG        N/A
S SABINE NF      N/A     70  63  78 N5          N/A
$$

SUPPLEMENTAL OBSERVATIONS ARE A COLLECTION OF AUTOMATED INSTRUMENTS
THAT ARE MAINTAINED BY A VARIETY OF FEDERAL AND STATE AGENCIES.
CERTAIN ELEMENTS...SUCH AS HUMIDITY VALUES AND SUSTAINED WIND
SPEEDS...MAY BE APPROXIMATED.




USA.gov is the U.S. government's official web portal to all federal, state and local government web resources and services.